History for DAAV

Jijel Achouat, DZ

Daily Weekly Monthly
Daily Summary for Thursday, March 21, 2019
  Actual: Average: Record:
Temperature
Mean Temperature: 52 °F / 12 °C - :  
Max Temperature: 57 °F / 14 °C - - ()
Min Temperature: 48 °F / 9 °C - - ()
Degree Days
Heating Degree Days: 12    
Growing Degree Days 2 (Base 50)    
Moisture
Dew Point 50 °F / 10 °C    
Average Humidity 85    
Maximum Humidity 100    
Minimum Humidity 67    
Precipitation
Precipitation 1.50 in / 38.0 cm - - ()
Sea Level Pressure
Sea Level Pressure 30.04 in / 1016.97 hPa   
Wind
Wind Speed 10 mph / 16 km/h ()  
Max Wind Speed 23 mph / 37 km/h   
Max Gust Speed 39 mph / 63 km/h   
Visibility 3.7 miles / 6.0 kilometers   
Events Rain   

Key: T is trace of precipitation, MM is missing value
Source: Averaged Metar Reports

Graphs

Observations

History Graphs Observations

Obs Go Here...

Features

Weather Apps

WunderRadio

Weather Underground Apps
Check out our wide variety of mobile and setup applications.

Weather Underground Applications

Top of Page

© Copyright 2019
The Weather Company, LLC
Time(CET)TemperatureDew PointHumidity Sea Level Pressure Visibility Wind DirectionWind SpeedGust SpeedPrecipitationEvents Conditions
12:00 AM 53.6 °F / 12.0 °C 42.8 °F / 6.0 °C 67% 30.12 in / 1020 hPa 4.3 miles / 7.0 kilometers North 8.1 mph / 13.0 km/h - N/A Rain Light Rain
1:00 AM 50 °F / 10 °C 43 °F / 6 °C 69% 30.15 in / 1021 hPa 5 miles / 8 kilometers WNW 4.6 mph / 7.4 km/h - - Rain Light Rain
1:00 AM 50.0 °F / 10.0 °C 42.8 °F / 6.0 °C 76% 30.12 in / 1020 hPa 5.0 miles / 8.0 kilometers WNW 4.6 mph / 7.4 km/h - N/A Rain Light Rain
2:00 AM 48.2 °F / 9.0 °C 46.4 °F / 8.0 °C 93% 30.12 in / 1020 hPa 5.0 miles / 8.0 kilometers WSW 4.6 mph / 7.4 km/h - N/A Rain Light Rain
3:00 AM 48.2 °F / 9.0 °C 46.4 °F / 8.0 °C 93% 30.06 in / 1018 hPa 5.0 miles / 8.0 kilometers WSW 5.8 mph / 9.3 km/h - N/A Rain Light Rain
4:00 AM 50 °F / 10 °C 47 °F / 8 °C 86% 30.04 in / 1017 hPa 4 miles / 7 kilometers West 9.2 mph / 14.8 km/h - - Rain Rain
4:00 AM 50.0 °F / 10.0 °C 46.4 °F / 8.0 °C 87% 30.04 in / 1017 hPa 4.3 miles / 7.0 kilometers West 9.2 mph / 14.8 km/h - N/A Rain Rain
4:45 AM 51.8 °F / 11.0 °C 50.0 °F / 10.0 °C 94% 29.98 in / 1015 hPa 3.1 miles / 5.0 kilometers West 11.5 mph / 18.5 km/h - N/A Rain Heavy Rain
5:00 AM 51.8 °F / 11.0 °C 50.0 °F / 10.0 °C 94% 29.98 in / 1015 hPa 3.1 miles / 5.0 kilometers WNW 17.3 mph / 27.8 km/h - N/A Rain Heavy Rain
5:10 AM 53.6 °F / 12.0 °C 51.8 °F / 11.0 °C 94% 29.98 in / 1015 hPa 3.7 miles / 6.0 kilometers North 13.8 mph / 22.2 km/h - N/A Rain Rain
6:00 AM 55.4 °F / 13.0 °C 53.6 °F / 12.0 °C 94% 29.98 in / 1015 hPa 4.3 miles / 7.0 kilometers North 17.3 mph / 27.8 km/h - N/A   Mostly Cloudy
7:00 AM 57 °F / 14 °C 52 °F / 11 °C 76% 29.99 in / 1015 hPa 4 miles / 6 kilometers NNE 20.7 mph / 33.3 km/h - - Rain Light Rain
7:00 AM 57.2 °F / 14.0 °C 51.8 °F / 11.0 °C 82% 29.98 in / 1015 hPa 3.7 miles / 6.0 kilometers NNE 23.0 mph / 37.0 km/h 38.0 mph / 61.1 km/h N/A Rain Light Rain
8:00 AM 57.2 °F / 14.0 °C 51.8 °F / 11.0 °C 82% 29.98 in / 1015 hPa 3.7 miles / 6.0 kilometers NNE 21.9 mph / 35.2 km/h - N/A Rain Light Rain
9:00 AM 57.2 °F / 14.0 °C 51.8 °F / 11.0 °C 82% 30.01 in / 1016 hPa 3.7 miles / 6.0 kilometers NNE 21.9 mph / 35.2 km/h - N/A   Mostly Cloudy
10:00 AM 52 °F / 11 °C 48 °F / 9 °C 82% 30.04 in / 1017 hPa 1 miles / 2.0 kilometers ENE 5.8 mph / 9.3 km/h - - Rain Rain
10:00 AM 51.8 °F / 11.0 °C 48.2 °F / 9.0 °C 88% 30.04 in / 1017 hPa 1.2 miles / 2.0 kilometers ENE 5.8 mph / 9.3 km/h - N/A Rain Rain
10:43 AM 51.8 °F / 11.0 °C 48.2 °F / 9.0 °C 88% 30.04 in / 1017 hPa 5.0 miles / 8.0 kilometers South 3.5 mph / 5.6 km/h - N/A   Mostly Cloudy
11:00 AM 57.2 °F / 14.0 °C 51.8 °F / 11.0 °C 82% 30.01 in / 1016 hPa 5.0 miles / 8.0 kilometers NNE 18.4 mph / 29.6 km/h 35.7 mph / 57.4 km/h N/A Rain Light Rain
11:29 AM 57.2 °F / 14.0 °C 51.8 °F / 11.0 °C 82% 30.01 in / 1016 hPa 1.2 miles / 2.0 kilometers East 10.4 mph / 16.7 km/h 23.0 mph / 37.0 km/h N/A Rain Light Rain
12:00 PM 51.8 °F / 11.0 °C 50.0 °F / 10.0 °C 94% 30.04 in / 1017 hPa 1.2 miles / 2.0 kilometers SE 3.5 mph / 5.6 km/h - N/A Rain Rain
1:00 PM 52 °F / 11 °C 51 °F / 11 °C 96% 30.04 in / 1017 hPa 1 miles / 2.0 kilometers SSE 5.8 mph / 9.3 km/h - - Rain Rain
1:00 PM 51.8 °F / 11.0 °C 51.8 °F / 11.0 °C 100% 30.01 in / 1016 hPa 1.2 miles / 2.0 kilometers SSE 5.8 mph / 9.3 km/h - N/A Rain Rain
2:00 PM 51.8 °F / 11.0 °C 50.0 °F / 10.0 °C 94% 30.01 in / 1016 hPa 1.2 miles / 2.0 kilometers SW 2.3 mph / 3.7 km/h - N/A Rain Rain
2:44 PM 57.2 °F / 14.0 °C 53.6 °F / 12.0 °C 88% 30.01 in / 1016 hPa 5.0 miles / 8.0 kilometers NE 17.3 mph / 27.8 km/h - N/A   Mostly Cloudy
3:00 PM 57.2 °F / 14.0 °C 51.8 °F / 11.0 °C 82% 30.04 in / 1017 hPa 5.0 miles / 8.0 kilometers NNE 19.6 mph / 31.5 km/h 39.1 mph / 63.0 km/h N/A   Mostly Cloudy
4:00 PM 57 °F / 14 °C 52 °F / 11 °C 77% 30.03 in / 1017 hPa 4 miles / 6 kilometers NNE 20.7 mph / 33.3 km/h - -   Partly Cloudy
4:00 PM 57.2 °F / 14.0 °C 51.8 °F / 11.0 °C 82% 30.01 in / 1016 hPa 3.7 miles / 6.0 kilometers NNE 20.7 mph / 33.3 km/h 33.4 mph / 53.7 km/h N/A   Mostly Cloudy
5:00 PM 57.2 °F / 14.0 °C 51.8 °F / 11.0 °C 82% 30.01 in / 1016 hPa 4.3 miles / 7.0 kilometers NNE 17.3 mph / 27.8 km/h - N/A   Mostly Cloudy
6:00 PM 57.2 °F / 14.0 °C 51.8 °F / 11.0 °C 82% 30.04 in / 1017 hPa 3.7 miles / 6.0 kilometers NNE 17.3 mph / 27.8 km/h 32.2 mph / 51.9 km/h N/A Rain Light Rain
7:00 PM 57 °F / 14 °C 51 °F / 10 °C 72% 30.06 in / 1018 hPa 4 miles / 7 kilometers NNE 16.1 mph / 25.9 km/h - - Rain Light Rain
7:00 PM 57.2 °F / 14.0 °C 50.0 °F / 10.0 °C 77% 30.04 in / 1017 hPa 4.3 miles / 7.0 kilometers NNE 16.1 mph / 25.9 km/h 28.8 mph / 46.3 km/h N/A   Mostly Cloudy
8:00 PM 57.2 °F / 14.0 °C 50.0 °F / 10.0 °C 77% 30.06 in / 1018 hPa 5.0 miles / 8.0 kilometers North 13.8 mph / 22.2 km/h 25.3 mph / 40.7 km/h N/A   Mostly Cloudy
9:00 PM 57.2 °F / 14.0 °C 51.8 °F / 11.0 °C 82% 30.06 in / 1018 hPa 4.3 miles / 7.0 kilometers North 13.8 mph / 22.2 km/h - N/A Rain Light Rain
10:00 PM 56 °F / 13 °C 53 °F / 12 °C 85% 30.09 in / 1019 hPa 4 miles / 7 kilometers NNE 8.1 mph / 13.0 km/h - - Rain Light Rain
10:00 PM 55.4 °F / 13.0 °C 53.6 °F / 12.0 °C 94% 30.06 in / 1018 hPa 4.3 miles / 7.0 kilometers NNE 8.1 mph / 13.0 km/h - N/A Rain Light Rain
11:00 PM 57.2 °F / 14.0 °C 51.8 °F / 11.0 °C 82% 30.06 in / 1018 hPa 4.3 miles / 7.0 kilometers NNE 10.4 mph / 16.7 km/h - N/A   Mostly Cloudy